Location: Schommer Observatory
(40.5200°N, 74.4500°W)
Time: 22:36:19
(UTC-04:00)

Tiangong 2 - Pass Details

Date: 08 October 2017
Orbit: 388 x 391 km, 42.8° (Epoch: 21 October)

Event Time Altitude Azimuth Distance (km) Brightness Sun altitude
Exits shadow 05:50:51 15° 210° (SSW) 1,151 3.1 -14.3°
Maximum altitude 05:53:01 32° 152° (SSE) 691 2.6 -13.8°
Drops below altitude 10° 05:55:56 10° 87° (E) 1,422 5.4 -13.3°
Sets 05:58:08 0° 77° (ENE) 2,281 6.8 -12.9°
